Flag for Germany Weather past 2 weeks in Forchheim, Bavaria, Germany

Now
67 °F

Rain. Low clouds.


Feels Like: 67 °F
Forecast: 53 / 72 °F
Wind: 7 mph from West

Location: Bamberg

Current Time: Sep 1, 2015 at 4:36:04 PM

Latest Report: Sep 1, 2015 at 4:00 PM


Visibility: 1 mi

Pressure: 29.82 "Hg

Humidity: 81%

Dew point: 61 °F

Location of ForchheimLocation

Historic Weather in Forchheim — Graph

°F

Forchheim temperature yesterday

Maximum temperature yesterday: 92 °F (at 4:00 PM)
Minimum temperature yesterday: 60 °F (at 7:00 AM)
Average temperature yesterday: 76 °F

Past Weeks' High & Low Weather Summary

 TemperatureHumidityPressure
High94 °F (Aug 30, 6:00 PM)100% (Aug 19, 2:00 AM)30.29 "Hg (Aug 19, 2:00 AM)
Low45 °F (Aug 22, 6:00 AM)29% (Aug 30, 6:00 PM)29.68 "Hg (Aug 24, 4:00 PM)
Average66 °F74%30.02 "Hg
* Reported Aug 17 3:00 PM — Sep 1 3:00 PM, Forchheim, Weather by CustomWeather, © 2015

Note: Actual official high and low records may vary slightly from our data, if they occured in-between our weather recording intervals... More about our weather records

Advertising

Forchheim weather history for previous 24 hours

 ConditionsComfort  
Time TempWeatherWind HumidityBarometerVisibility
3:00 PM
Tue, Sep 1
80 °FOvercast.9 mph42%29.78 "Hg22 mi
2:00 PM81 °FOvercast.8 mph41%29.75 "Hg31 mi
1:00 PM85 °FOvercast.3 mph39%29.74 "Hg34 mi
12:00 PM84 °FSunny.3 mph42%29.75 "Hg22 mi
11:00 AM80 °FPassing clouds.3 mph49%29.76 "Hg22 mi
10:00 AM76 °FSunny.1 mph54%29.78 "Hg22 mi
9:00 AM71 °FScattered clouds.2 mph65%29.79 "Hg17 mi
8:00 AM64 °FSunny.2 mph85%29.82 "Hg11 mi
7:00 AM59 °FSunny.1 mph96%29.83 "Hg8 mi
5:00 AM59 °FClear.1 mph95%29.83 "Hg6 mi
4:00 AM59 °FClear.1 mph94%29.83 "Hg10 mi
3:00 AM59 °FClear.1 mph95%29.85 "Hg9 mi
2:00 AM60 °FClear.1 mph93%29.84 "Hg8 mi
1:00 AM64 °FClear.1 mph85%29.83 "Hg17 mi
11:00 PM
Mon, Aug 31
64 °FClear.1 mph85%29.84 "Hg19 mi
10:00 PM68 °FClear.1 mph74%29.83 "Hg28 mi
9:00 PM70 °FClear.1 mph74%29.83 "Hg28 mi
8:00 PM83 °FSunny.2 mph39%29.80 "Hg31 mi
7:00 PM90 °FPassing clouds.5 mph29%29.79 "Hg31 mi
6:00 PM92 °FOvercast.2 mph34%29.79 "Hg37 mi
5:00 PM92 °FPassing clouds.2 mph35%29.80 "Hg31 mi
4:00 PM92 °FOvercast.3 mph34%29.82 "Hg40 mi
Weather by CustomWeather, © 2015

See weather overviewHow to use our weather pages